Location: Unspecified
(0.0000°N, 0.0000°E)
Time: 19:01:45
(UTC+00:00)

A-11 Canister half - Pass Details

Date: 20 November 2019
Orbit: 1526 x 1683 km, 47.3° (Epoch: 08 December)

Event Time Altitude Azimuth Distance (km) Brightness Sun altitude
Rises 07:49:32 0° 213° (SSW) 4,899 11.5 29.0°
Reaches altitude 10° 07:52:43 10° 210° (SSW) 3,924 11.2 29.8°
Maximum altitude 08:02:44 66° 129° (SE) 1,809 10.5 32.1°
Drops below altitude 10° 08:12:44 10° 49° (NE) 3,924 11.5 34.3°
Sets 08:15:54 0° 47° (NE) 4,900 11.9 35.1°
